When you browse on this site, cookies collect data to enhance your experience and personalize the content and advertising you see.
Visit our Privacy Policy to learn more. By continuing to use the site, you agree to this use of cookies and data.
  • In United Kingdom
  • List of Countries
  • For 7 days
  • Water Temperature
  • Satellite Maps
  • Weather Map
  • Weather Widgets
  • user-avatar
    Login

    Hourly Weather Valledupar

    Today, 23 April, Tuesday

    Time Temperature Precipitation Wind Pressure Humidity
    00:00 +27°C° 0.2 mm 1 mps 744 mmHg 71%
    01:00 +27°C° 0.2 mm 1 mps 744 mmHg 72%
    02:00 +27°C° 0.1 mm 1 mps 743 mmHg 74%
    03:00 +27°C° 0.1 mm 1 mps 743 mmHg 75%
    04:00 +27°C° 0.1 mm 1 mps 743 mmHg 76%
    05:00 +27°C° 0 mm 1 mps 743 mmHg 75%
    06:00 +28°C° 0 mm 1 mps 744 mmHg 73%
    07:00 +28°C° 0 mm 1 mps 744 mmHg 71%
    08:00 +30°C° 0 mm 1 mps 744 mmHg 62%
    09:00 +32°C° 0 mm 1 mps 744 mmHg 54%
    10:00 +35°C° 0 mm 2 mps 745 mmHg 45%
    11:00 +36°C° 0 mm 2 mps 744 mmHg 41%
    12:00 +38°C° 0 mm 2 mps 744 mmHg 38%
    13:00 +39°C° 0 mm 1 mps 743 mmHg 34%
    14:00 +37°C° 0.1 mm 2 mps 742 mmHg 36%
    15:00 +36°C° 0.1 mm 2 mps 742 mmHg 39%
    16:00 +35°C° 0.1 mm 2 mps 741 mmHg 41%
    17:00 +32°C° 0.1 mm 2 mps 741 mmHg 49%
    18:00 +30°C° 0.1 mm 2 mps 742 mmHg 58%
    19:00 +28°C° 0.1 mm 2 mps 742 mmHg 66%
    20:00 +28°C° 0 mm 2 mps 742 mmHg 69%
    21:00 +27°C° 0 mm 2 mps 743 mmHg 73%
    22:00 +27°C° 0 mm 2 mps 744 mmHg 76%
    23:00 +27°C° 0 mm 1 mps 743 mmHg 77%

    Tomorrow, 24 April, Wednesday

    Time Temperature Precipitation Wind Pressure Humidity
    00:00 +27°C° 0 mm 1 mps 743 mmHg 77%
    01:00 +27°C° 0 mm 1 mps 743 mmHg 78%
    02:00 +27°C° 0 mm 1 mps 743 mmHg 77%
    03:00 +27°C° 0 mm 1 mps 742 mmHg 76%
    04:00 +27°C° 0 mm 1 mps 742 mmHg 75%
    05:00 +28°C° 0 mm 1 mps 743 mmHg 70%
    06:00 +29°C° 0 mm 1 mps 743 mmHg 65%
    07:00 +29°C° 0 mm 1 mps 744 mmHg 60%
    08:00 +32°C° 0 mm 1 mps 744 mmHg 51%
    09:00 +34°C° 0 mm 1 mps 744 mmHg 43%
    10:00 +36°C° 0 mm 1 mps 745 mmHg 34%
    11:00 +37°C° 0 mm 1 mps 744 mmHg 32%
    12:00 +39°C° 0 mm 1 mps 743 mmHg 31%
    13:00 +40°C° 0 mm 1 mps 743 mmHg 29%
    14:00 +39°C° 0 mm 2 mps 742 mmHg 31%
    15:00 +38°C° 0 mm 2 mps 742 mmHg 34%
    16:00 +36°C° 0 mm 2 mps 741 mmHg 36%
    17:00 +34°C° 0 mm 2 mps 741 mmHg 44%
    18:00 +31°C° 0 mm 2 mps 742 mmHg 52%
    19:00 +29°C° 0 mm 2 mps 742 mmHg 60%
    20:00 +29°C° 0.1 mm 2 mps 743 mmHg 64%
    21:00 +29°C° 0.1 mm 2 mps 743 mmHg 68%
    22:00 +29°C° 0.1 mm 2 mps 744 mmHg 72%
    23:00 +28°C° 0.1 mm 2 mps 744 mmHg 73%

    Day after tomorrow, 25 April, Thursday

    Time Temperature Precipitation Wind Pressure Humidity
    00:00 +28°C° 0.1 mm 2 mps 743 mmHg 75%
    01:00 +28°C° 0.1 mm 2 mps 743 mmHg 76%
    02:00 +28°C° 0.1 mm 2 mps 743 mmHg 76%
    03:00 +28°C° 0.1 mm 2 mps 742 mmHg 76%
    04:00 +28°C° 0.1 mm 2 mps 742 mmHg 76%
    05:00 +29°C° 0.1 mm 2 mps 743 mmHg 73%
    06:00 +29°C° 0.1 mm 2 mps 743 mmHg 70%
    07:00 +30°C° 0.1 mm 2 mps 744 mmHg 67%
    08:00 +32°C° 0.1 mm 2 mps 744 mmHg 60%
    09:00 +34°C° 0.1 mm 2 mps 744 mmHg 54%
    10:00 +36°C° 0.1 mm 2 mps 745 mmHg 47%
    11:00 +37°C° 0.2 mm 2 mps 744 mmHg 44%
    12:00 +38°C° 0.2 mm 2 mps 743 mmHg 42%
    13:00 +38°C° 0.2 mm 2 mps 742 mmHg 39%
    14:00 +38°C° 0.3 mm 2 mps 742 mmHg 42%
    15:00 +37°C° 0.3 mm 2 mps 741 mmHg 45%
    16:00 +36°C° 0.3 mm 2 mps 741 mmHg 47%
    17:00 +34°C° 0.4 mm 2 mps 741 mmHg 54%
    18:00 +31°C° 0.4 mm 2 mps 742 mmHg 61%
    19:00 +30°C° 0.4 mm 2 mps 743 mmHg 67%
    20:00 +30°C° 0.5 mm 2 mps 743 mmHg 69%
    21:00 +30°C° 0.5 mm 2 mps 744 mmHg 70%
    22:00 +29°C° 0.5 mm 2 mps 744 mmHg 72%
    23:00 +29°C° 0.5 mm 2 mps 744 mmHg 73%

    26 April, Friday

    Time Temperature Precipitation Wind Pressure Humidity
    00:00 +29°C° 0.5 mm 2 mps 743 mmHg 74%
    01:00 +29°C° 0.5 mm 2 mps 743 mmHg 75%
    02:00 +29°C° 0.4 mm 1 mps 743 mmHg 76%
    03:00 +28°C° 0.4 mm 1 mps 743 mmHg 77%
    04:00 +28°C° 0.4 mm 1 mps 743 mmHg 78%
    05:00 +29°C° 0.6 mm 1 mps 743 mmHg 75%
    06:00 +29°C° 0.6 mm 1 mps 744 mmHg 73%
    07:00 +30°C° 0.6 mm 1 mps 744 mmHg 70%
    08:00 +31°C° 0.2 mm 1 mps 744 mmHg 64%
    09:00 +32°C° 0.2 mm 1 mps 744 mmHg 58%
    10:00 +34°C° 0.2 mm 1 mps 745 mmHg 52%
    11:00 +35°C° 0.3 mm 1 mps 744 mmHg 48%
    12:00 +36°C° 0.3 mm 1 mps 743 mmHg 44%
    13:00 +37°C° 0.3 mm 1 mps 743 mmHg 40%
    14:00 +36°C° 0.3 mm 1 mps 742 mmHg 41%
    15:00 +35°C° 0.3 mm 1 mps 742 mmHg 43%
    16:00 +35°C° 0.3 mm 1 mps 741 mmHg 44%
    17:00 +33°C° 0.3 mm 1 mps 742 mmHg 50%
    18:00 +31°C° 0.3 mm 1 mps 742 mmHg 55%
    19:00 +29°C° 0.3 mm 1 mps 743 mmHg 61%
    20:00 +29°C° 0.3 mm 1 mps 743 mmHg 63%
    21:00 +29°C° 0.3 mm 1 mps 744 mmHg 64%
    22:00 +29°C° 0.3 mm 1 mps 744 mmHg 65%
    23:00 +28°C° 0.4 mm 1 mps 744 mmHg 66%

    27 April, Saturday

    Time Temperature Precipitation Wind Pressure Humidity
    00:00 +28°C° 0.4 mm 1 mps 743 mmHg 67%
    01:00 +26°C° 0.4 mm 0 mps 743 mmHg 68%
    02:00 +26°C° 0.4 mm 0 mps 743 mmHg 68%
    03:00 +26°C° 0.4 mm 0 mps 743 mmHg 68%
    04:00 +26°C° 0.4 mm 0 mps 743 mmHg 68%
    05:00 +27°C° 0.4 mm 0 mps 743 mmHg 65%
    06:00 +27°C° 0.4 mm 0 mps 743 mmHg 62%
    07:00 +28°C° 0.4 mm 0 mps 744 mmHg 59%
    08:00 +30°C° 0.3 mm 0 mps 744 mmHg 53%
    09:00 +32°C° 0.3 mm 0 mps 744 mmHg 46%
    10:00 +35°C° 0.3 mm 1 mps 744 mmHg 40%
    11:00 +36°C° 0.2 mm 1 mps 744 mmHg 39%
    12:00 +37°C° 0.2 mm 1 mps 743 mmHg 37%
    13:00 +39°C° 0.2 mm 1 mps 742 mmHg 35%
    14:00 +37°C° 0.3 mm 1 mps 742 mmHg 38%
    15:00 +36°C° 0.3 mm 1 mps 741 mmHg 40%
    16:00 +35°C° 0.3 mm 1 mps 740 mmHg 43%
    17:00 +33°C° 0.3 mm 1 mps 741 mmHg 48%
    18:00 +32°C° 0.3 mm 1 mps 741 mmHg 54%
    19:00 +30°C° 0.3 mm 1 mps 742 mmHg 59%
    20:00 +30°C° 0.2 mm 1 mps 742 mmHg 60%
    21:00 +30°C° 0.2 mm 1 mps 742 mmHg 61%
    22:00 +29°C° 0.2 mm 1 mps 743 mmHg 61%
    23:00 +29°C° 0.2 mm 1 mps 742 mmHg 63%

    28 April, Sunday

    Time Temperature Precipitation Wind Pressure Humidity
    00:00 +29°C° 0.2 mm 1 mps 742 mmHg 65%
    01:00 +29°C° 0.2 mm 1 mps 741 mmHg 67%
    02:00 +29°C° 0.2 mm 1 mps 741 mmHg 68%
    03:00 +27°C° 0.2 mm 0 mps 741 mmHg 70%
    04:00 +26°C° 0.2 mm 0 mps 741 mmHg 71%
    05:00 +27°C° 0.3 mm 0 mps 742 mmHg 69%
    06:00 +28°C° 0.3 mm 0 mps 742 mmHg 67%
    07:00 +30°C° 0.3 mm 1 mps 743 mmHg 65%
    08:00 +32°C° 0.2 mm 1 mps 743 mmHg 59%
    09:00 +33°C° 0.2 mm 1 mps 743 mmHg 54%
    10:00 +34°C° 0.2 mm 1 mps 743 mmHg 48%
    11:00 +35°C° 0.1 mm 1 mps 743 mmHg 46%
    12:00 +36°C° 0.1 mm 1 mps 742 mmHg 43%
    13:00 +37°C° 0.1 mm 1 mps 741 mmHg 40%
    14:00 +36°C° 0.3 mm 1 mps 741 mmHg 41%
    15:00 +35°C° 0.3 mm 1 mps 741 mmHg 43%
    16:00 +34°C° 0.3 mm 1 mps 740 mmHg 44%
    17:00 +33°C° 0.3 mm 1 mps 741 mmHg 48%
    18:00 +31°C° 0.3 mm 1 mps 741 mmHg 52%
    19:00 +30°C° 0.3 mm 1 mps 742 mmHg 55%
    20:00 +30°C° 0.3 mm 1 mps 742 mmHg 58%
    21:00 +30°C° 0.3 mm 1 mps 742 mmHg 60%
    22:00 +29°C° 0.3 mm 1 mps 743 mmHg 62%
    23:00 +29°C° 0.3 mm 1 mps 742 mmHg 66%
    Show more